STARLINK-1362, 45538

Orbit data source: Space-Track

STARLINK-1362, 45538 is a payload satellite owned by SpaceX/Seattle (US) in LEO that was launched on Wed, 22 Apr 2020 UTC via an FALCON 9 launch vehicle from the Air Force Eastern Test Range (AFETR). Payload-class satellites include a variety of spacecraft equipped with specific instruments for various scientific and technological missions. These include communications satellites like Starlink; space stations such as the ISS; scientific satellites like the Hubble; Earth observation satellites from companies like Planet Labs, Umbra, and HawkEye 360; GPS; miniature CubeSats for education and research; and military/defense satellites.

Loading next visibility...
Identifier
45538, 2020-025H
Orbit
LEO
Country
Flag of USUS
Related business
Manufacturer
SpaceX/Seattle
Mission
Partially operational Commercial Communications
Bus & Motor
STARLINK, Unknown motor
Mass
260 kg wet, ~248 kg dry
Launch date (UTC)
2020-04-22 (6 years ago)
Launch vehicle
FALCON 9
Launch site
Air Force Eastern Test Range (AFETR)
Object type
Payload
Rocket body
Debris
Shape & HBR
Box + 1 Pan, 10.1 m
Radar Cross Section
13.562 m², Large (>1 m²)

Expand to show TLE details & history
Last TLE update: 1 day ago

TLE from 1 day ago
0 STARLINK-1362
1 45538U 20025H   26169.78425878  .00042769  00000-0  11190-2 0  9999
2 45538  53.1570 348.8070 0002901 226.6898 133.3865 15.38337696340693
Epoch: 2026-06-18T18:49Z
TLE epoch observation values (Epoch: 2026-06-18T18:49:19.958Z)
Latitude
-0°
Longitude
159.45122°
Altitude
453.288 km
Speed
7.641 km/s
True Right ascension
23h 15m 13s
True Declination
0° 00' 00"
Sunlit
Object was in daylight at epoch
Visualization orbit readout
Latitude
Unknown
Longitude
Unknown
Altitude
Unknown
Speed
Unknown
Apparent Right ascension
Unknown
Apparent Declination
Unknown
Sunlit
N/A
Visualization observer readout
Local Sidereal Time
08:15:53
Azimuth
Unknown
Elevation
Unknown
Doppler factor
Unknown
Orbital elements
Apogee altitude
453.264 km
Perigee altitude
449.301 km
Semi-major axis
6,829.419 km
Eccentricity
0.00029
Inclination
53.157°
RAAN
348.807°
Arg. of periapsis
226.6898°
True anomaly
133.41065°
Mean anomaly
133.3865°
Eccentric anomaly
133.39858°
Mean motion
3.84563 °/min
Orbital period
93.61 mins
BSTAR
0.001119
Loading maneuver chart data...
Computing Atmospheric mass density...
Loading historical data...
Loading historical data...
Loading historical data...
Loading historical data...
Loading historical data...
Loading historical data...
Loading historical data...

Documentation

Showing up to 5 results
|